Regional Weather Roundup
Issued by NWS

Home | Current Version | Previous Version | Text Only | Print | Product List | Glossary Off
Versions: 1 2 3 4 5 6 7 8 9 10 11 12 13 14 15 16 17 18 19 20 21 22 23 24 25 26 27

000
ASUS45 KSLC 201610
RWRUT

UTAH REGIONAL WEATHER ROUNDUP
NATIONAL WEATHER SERVICE SALT LAKE CITY UT
900 AM MST SAT JAN 20 2018

UTZ001>011-023>025-201700-

NORTHERN UTAH

CITY           SKY/WX    TMP DP  RH WIND       PRES   REMARKS
BRIGHAM CITY   CLOUDY    31  26  83 CALM      29.92S
HILL AFB       CLOUDY    28  28  99 N8        29.87F BLWGSNOWWCI  20
LOGAN          CLOUDY    30  27  88 NW5       29.92S FOG     WCI  25
OGDEN          LGT SNOW  29  27  92 N10       29.88F FOG     WCI  20
SALT LAKE CITY LGT SNOW  31  29  92 N15       29.89F VSB 1   WCI  20
TOOELE VALLEY  LGT SNOW  30  30 100 N6        29.92R VSB 1   WCI  24
WENDOVER       CLOUDY    27  23  85 NE3       29.95R
HEBER CITY     LGT SNOW  30  23  74 NE8       29.79F WCI  23
WEST JORDAN    CLOUDY    28  28 100 NW17      29.89S VSB 3/4 WCI  15

$$

UTZ011>015-024>027-201700-

CENTRAL/NORTHEAST UTAH

CITY           SKY/WX    TMP DP  RH WIND       PRES   REMARKS
PROVO AIRPORT  FLURRIES  30  27  86 NW17      29.86R WCI  18
MOAB/CANYONLAN CLOUDY    46  32  58 SW12      29.73R
DELTA          CLOUDY    28  28 100 N9        29.87R VSB 1   WCI  20
PRICE          LGT SNOW  31  31 100 CALM      29.73R VSB 3/4
ROOSEVELT      CLOUDY    30  23  74 CALM      29.77S
VERNAL         SNOW      31  29  92 NE8       29.77R VSB 1/2 WCI  23

$$

UTZ013>016-019>022-027-201700-

SOUTHERN UTAH

CITY           SKY/WX    TMP DP  RH WIND       PRES   REMARKS
BRYCE CANYON   LGT SNOW  31  30  96 SE20      29.72F FOG     WCI  19
CEDAR CITY     HVY SNOW  26  26 100 NW5       29.81R VSB 1/4 WCI  20
MILFORD        SNOW      27  27 100 N13       29.84R VSB 1/2 WCI  16
ST GEORGE      LGT RAIN  42  38  85 N14       29.80R
HANKSVILLE     CLOUDY    41  32  70 CALM      29.77R
BLANDING         N/A     39  19  45 CALM      29.90S

$$

REGIONAL REPORTS     COLORADO/ARIZONA

CITY           SKY/WX    TMP DP  RH WIND       PRES   REMARKS
CRAIG, CO      CLOUDY    32  26  78 SW8       29.80R WCI  25
GRAND JUNCTION CLOUDY    49  25  39 S7        29.76R
RIFLE, CO      LGT RAIN  36  27  69 NW8       29.79S WCI  30
MONTROSE, CO   CLOUDY    44  22  41 SE8       29.82S
CORTEZ, CO     CLOUDY    46  18  32 SE16      29.90R
COLORADO CITY  LGT RAIN  41  37  87 SW8       29.79R
PAGE, AZ       CLOUDY    51  27  39 CALM      29.74R
GRAND CANYON   LGT SNOW  33  32  96 SW13G21   29.83R FOG     WCI  24
KINGMAN, AZ    MOSUNNY   46  26  45 SW15      29.83R
FLAGSTAFF, AZ  FLURRIES  32  29  88 S10       29.85S WCI  24

$$

REGIONAL REPORTS    NEVADA/IDAHO/WYOMING

CITY           SKY/WX    TMP DP  RH WIND       PRES   REMARKS
LAS VEGAS, NV  PTSUNNY   49  28  44 W9        29.82R
ELY, NY        LGT SNOW  22  19  89 N16       29.86S FOG     WCI   8
ELKO, NV       MOCLDY    22  18  85 SW5       29.96R WCI  16
POCATELLO, ID  CLOUDY    28  24  85 SW12      29.98R WCI  18
BURLEY, ID     MOCLDY    29  22  75 SW9       29.97S WCI  20
FORT BRIDGER,  LGT SNOW  23  23 100 NW5       29.83F VSB 3/4 WCI  17
EVANSTON, WY   FOG       20  19  96 N13       29.81S VSB 3/4 WCI   7
ROCK SPRINGS,  LGT SNOW  24  21  88 CALM      29.81R

$$




USA.gov is the U.S. government's official web portal to all federal, state and local government web resources and services.